Location: Mountain_View
(35.6670°N, 81.4000°W)
Time: 03:13:52
(UTC-05:00)

ISS - Pass Details

Date: 18 November 2019
Orbit: 411 x 421 km, 51.6° (Epoch: 14 December)

Event Time Altitude Azimuth Distance (km) Brightness Sun altitude
Rises 18:33:37 0° 189° (S) 2,337 0.3 -15.6°
Reaches altitude 10° 18:36:20 10° 165° (SSE) 1,483 -1.0 -16.2°
Enters shadow 18:37:30 14° 145° (SE) 1,268 -1.6 -16.4°
